Location: Barcelona
(41.3829°N, 2.1774°E)
Time: 14:06:32
(UTC+00:00)

ISS - Pass Details

Date: 17 July 2024
Orbit: 410 x 424 km, 51.6° (Epoch: 14 July)

Event Time Altitude Azimuth Distance (km) Brightness Sun altitude
Rises 20:11:22 0° 288° (WNW) 2,339 1.6 -8.6°
Reaches altitude 10° 20:14:06 10° 312° (NW) 1,478 0.7 -9.0°
Maximum altitude 20:16:10 15° 351° (N) 1,194 -0.7 -9.3°
Drops below altitude 10° 20:18:14 10° 30° (NNE) 1,480 -0.9 -9.6°
Sets 20:20:58 0° 54° (NE) 2,343 -0.1 -10.0°
